Oscoda, MI

7:00 PM EDT on July 26, 2016 (GMT -0400)
Oscoda-Wurtsmith

Weather History for KOSC - January, 2014

Change the Weather History Date:

Monday, January 6, 2014

  Actual Average Record
Temperature  
Mean Temperature 6 °F -  
Max Temperature 18 °F 28 °F 54 °F (2012)
Min Temperature -5 °F 14 °F -5 °F (2014)
Degree Days  
Heating Degree Days 58    
Moisture  
Dew Point 1 °F    
Average Humidity 73    
Maximum Humidity 85    
Minimum Humidity 56    
Precipitation  
Precipitation 0.00 in - - ()
Sea Level Pressure  
Sea Level Pressure 29.71 in    
Wind  
Wind Speed 16 mph (WNW)    
Max Wind Speed 24 mph    
Max Gust Speed 31 mph    
Averages and records for this station are not official NWS values.
T = Trace of Precipitation, MM = Missing Value Source: NWS Daily Summary

Daily Weather History Graph

Daily Weather History Graph

Search for Another Location

Airport or City:

Trip Planner

Search our weather history database for the weather conditions in past years. The results will help you decide how hot, cold, wet, or windy it might be!

Date:

Astronomy

Jan. 06, 2014 Rise Set
Actual Time 8:09 AM EST 5:09 PM EST
Civil Twilight 7:36 AM EST 5:42 PM EST
Nautical Twilight 7:00 AM EST 6:19 PM EST
Astronomical Twilight 6:25 AM EST 6:54 PM EST
Moon 11:09 AM EST (1/6) 11:58 PM EST (1/6)
Length of Visible Light 10h 05m
Length of Day
8h 59m
Waxing Crescent, 34% of the Moon is Illuminated
Jan 6
Waxing Crescent
Jan 7
First Quarter
Jan 15
Full
Jan 24
Last Quarter
Jan 30
New

Hourly Weather History & Observations

Time (EST) Temp. Windchill Dew Point Humidity Pressure Visibility Wind Dir Wind Speed Gust Speed Precip Events Conditions
12:14 AM 18.5 °F 3.3 °F 14.5 °F 85% 29.61 in - NNW 17.3 mph 29.9 mph N/A   Unknown
12:34 AM 18.1 °F 1.6 °F 14.4 °F 85% 29.60 in - NNW 20.7 mph 29.9 mph N/A   Overcast
12:53 AM 17.6 °F 0.5 °F 13.6 °F 84% 29.59 in - NW 21.9 mph 27.6 mph N/A   Unknown
1:14 AM 17.2 °F 1.7 °F 13.1 °F 84% 29.59 in - NNW 17.3 mph 24.2 mph N/A   Unknown
1:34 AM 16.7 °F 0.1 °F 12.2 °F 82% 29.59 in - NNW 19.6 mph 24.2 mph N/A   Overcast
1:53 AM 16.5 °F -0.1 °F 11.3 °F 80% 29.59 in - NW 19.6 mph 27.6 mph N/A   Overcast
2:14 AM 15.8 °F -0.6 °F 10.9 °F 81% 29.59 in - NW 18.4 mph 29.9 mph N/A   Overcast
2:34 AM 15.6 °F -0.4 °F 10.8 °F 81% 29.60 in - NW 17.3 mph 27.6 mph N/A   Unknown
2:53 AM 15.3 °F -1.3 °F 10.4 °F 81% 29.60 in - NW 18.4 mph 27.6 mph N/A   Overcast
3:14 AM 14.9 °F -1.3 °F 9.5 °F 79% 29.60 in - NW 17.3 mph 21.9 mph N/A   Overcast
3:34 AM 14.5 °F -1.3 °F 9.1 °F 79% 29.60 in - NW 16.1 mph 24.2 mph N/A   Overcast
3:53 AM 14.0 °F -3.0 °F 8.4 °F 78% 29.60 in - NW 18.4 mph 24.2 mph N/A   Overcast
4:14 AM 13.1 °F -0.7 °F 7.9 °F 80% 29.61 in - NW 11.5 mph 20.7 mph N/A   Mostly Cloudy
4:34 AM 12.7 °F -1.8 °F 7.0 °F 78% 29.61 in - NW 12.7 mph 20.7 mph N/A   Scattered Clouds
4:53 AM 12.0 °F - 6.4 °F 78% 29.62 in - North - - N/A   Mostly Cloudy
5:14 AM 11.7 °F - 5.5 °F 76% 29.62 in - North - - N/A   Overcast
5:33 AM 11.8 °F -3.6 °F 5.0 °F 74% 29.61 in - NW 13.8 mph - N/A   Overcast
5:53 AM 11.7 °F -3.8 °F 4.5 °F 73% 29.62 in - NW 13.8 mph - N/A   Overcast
6:14 AM 11.7 °F -3.2 °F 4.1 °F 72% 29.63 in - NW 12.7 mph - N/A   Overcast
6:33 AM 11.3 °F -4.3 °F 4.3 °F 73% 29.63 in - NW 13.8 mph - N/A   Overcast
6:53 AM 11.3 °F -2.2 °F 4.3 °F 73% 29.65 in - WNW 10.4 mph 16.1 mph N/A   Overcast
7:14 AM 10.9 °F -2.6 °F 4.1 °F 74% 29.66 in - WNW 10.4 mph 17.3 mph N/A   Overcast
7:33 AM 10.9 °F -4.1 °F 3.7 °F 73% 29.67 in - WNW 12.7 mph 18.4 mph N/A   Overcast
7:54 AM 10.6 °F -3.1 °F 3.4 °F 73% 29.68 in - West 10.4 mph - N/A   Overcast
8:14 AM 10.4 °F -4.1 °F 3.4 °F 73% 29.69 in - West 11.5 mph - N/A   Overcast
8:33 AM 10.4 °F -3.3 °F 3.7 °F 74% 29.69 in - West 10.4 mph - N/A   Overcast
8:54 AM 10.4 °F -4.8 °F 4.6 °F 78% 29.70 in - West 12.7 mph - N/A   Overcast
9:13 AM 10.8 °F -3.6 °F 4.6 °F 76% 29.70 in - West 11.5 mph 18.4 mph N/A   Overcast
9:34 AM 10.9 °F -3.4 °F 4.6 °F 76% 29.70 in - WNW 11.5 mph 18.4 mph N/A   Overcast
9:54 AM 10.8 °F -3.6 °F 5.0 °F 78% 29.71 in - West 11.5 mph - N/A   Overcast
10:13 AM 10.9 °F -2.6 °F 5.4 °F 78% 29.71 in - WNW 10.4 mph 17.3 mph N/A   Overcast
10:33 AM 10.6 °F - 5.2 °F 79% 29.71 in - North - - N/A   Overcast
10:54 AM 10.4 °F -3.3 °F 4.8 °F 78% 29.71 in - West 10.4 mph 19.6 mph N/A   Overcast
11:13 AM 10.4 °F -6.6 °F 4.5 °F 77% 29.70 in - WNW 16.1 mph - N/A   Overcast
11:33 AM 10.8 °F -1.1 °F 5.2 °F 78% 29.70 in - WNW 8.1 mph 18.4 mph N/A   Overcast
11:54 AM 10.4 °F - 4.5 °F 77% 29.69 in - North - - N/A   Overcast
12:13 PM 10.2 °F -6.9 °F 2.8 °F 72% 29.68 in - NW 16.1 mph 19.6 mph N/A   Overcast
12:33 PM 10.9 °F -5.4 °F 2.8 °F 70% 29.68 in - NW 15.0 mph - N/A   Overcast
12:54 PM 10.8 °F -7.2 °F 2.8 °F 70% 29.68 in - NW 18.4 mph 24.2 mph N/A   Overcast
1:13 PM 10.4 °F -7.2 °F 1.8 °F 68% 29.68 in - NW 17.3 mph 20.7 mph N/A   Overcast
1:34 PM 10.0 °F -4.5 °F 1.4 °F 68% 29.68 in - NW 11.5 mph 19.6 mph N/A   Overcast
1:54 PM 10.0 °F - 0.3 °F 65% 29.68 in - North - - N/A   Overcast
2:13 PM 9.9 °F -7.3 °F -1.3 °F 61% 29.69 in - NNW 16.1 mph - N/A   Overcast
2:34 PM 10.4 °F -6.6 °F -2.4 °F 56% 29.69 in - NW 16.1 mph - N/A   Overcast
2:54 PM 10.0 °F -5.9 °F -0.8 °F 62% 29.70 in - NW 13.8 mph - N/A   Overcast
3:13 PM 9.7 °F - 0.9 °F 68% 29.71 in - North - - N/A   Overcast
3:34 PM 9.5 °F -5.2 °F 2.5 °F 73% 29.72 in - NW 11.5 mph 18.4 mph N/A   Overcast
3:54 PM 9.1 °F - 2.3 °F 74% 29.73 in - North - - N/A   Overcast
4:13 PM 9.0 °F -5.9 °F 3.0 °F 77% 29.73 in - WNW 11.5 mph - N/A   Overcast
4:34 PM 8.6 °F - 0.7 °F 70% 29.74 in - North - - N/A   Overcast
4:54 PM 8.2 °F - -0.4 °F 68% 29.75 in - North - - N/A   Overcast
5:13 PM 7.7 °F - 2.5 °F 79% 29.76 in - North - - N/A   Overcast
5:34 PM 6.8 °F - -0.8 °F 71% 29.77 in - North - - N/A   Overcast
5:54 PM 5.9 °F - -2.9 °F 67% 29.78 in - North - - N/A   Overcast
6:13 PM 5.4 °F - -4.2 °F 65% 29.80 in - North - - N/A   Overcast
6:34 PM 3.9 °F - -5.1 °F 66% 29.81 in - North - - N/A   Overcast
6:54 PM 2.8 °F - -6.5 °F 65% 29.82 in - North - - N/A   Overcast
7:13 PM 2.1 °F - -7.2 °F 65% 29.83 in - North - - N/A   Overcast
7:34 PM 1.2 °F - -8.9 °F 63% 29.84 in - North - - N/A   Overcast
7:54 PM 0.3 °F - -9.0 °F 65% 29.84 in - North - - N/A   Overcast
8:13 PM -0.4 °F - -10.3 °F 63% 29.85 in - North - - N/A   Overcast
8:34 PM -0.9 °F -25.0 °F -9.9 °F 66% 29.85 in - WSW 24.2 mph - N/A   Overcast
8:53 PM -1.5 °F - -10.3 °F 66% 29.86 in - North - - N/A   Overcast
9:13 PM -2.2 °F -25.2 °F -11.2 °F 66% 29.86 in - WSW 20.7 mph - N/A   Overcast
9:34 PM -2.7 °F -25.9 °F -11.4 °F 67% 29.86 in - WSW 20.7 mph - N/A   Scattered Clouds
9:53 PM -3.1 °F - -12.1 °F 65% 29.86 in - North - - N/A   Clear
10:13 PM -3.5 °F - -12.5 °F 65% 29.86 in - North - - N/A   Clear
10:34 PM -4.2 °F -27.8 °F -12.8 °F 66% 29.86 in - WSW 20.7 mph 26.5 mph N/A   Clear
10:53 PM -4.4 °F -26.3 °F -12.6 °F 68% 29.86 in - WSW 17.3 mph - N/A   Clear
11:13 PM -5.1 °F -28.4 °F -12.8 °F 69% 29.86 in - WSW 19.6 mph 31.1 mph N/A   Clear
11:34 PM -5.3 °F -28.7 °F -13.0 °F 69% 29.87 in - WSW 19.6 mph - N/A   Clear
11:53 PM -5.4 °F -29.5 °F -13.2 °F 69% 29.87 in - WSW 20.7 mph - N/A   Clear